Weather History for CXHA - January, 2013

Change the Weather History Date:

Saturday, January 12, 2013

  Actual Average Record
Temperature  
Mean Temperature 49 °F -  
Max Temperature 55 °F - - ()
Min Temperature 43 °F - - ()
Degree Days  
Heating Degree Days 16    
Moisture  
Dew Point 46 °F    
Average Humidity 91    
Maximum Humidity 99    
Minimum Humidity 86    
Precipitation  
Precipitation 0.35 in - - ()
Sea Level Pressure  
Sea Level Pressure 29.90 in    
Wind  
Wind Speed 8 mph ()    
Max Wind Speed 12 mph    
Max Gust Speed 17 mph    
T = Trace of Precipitation, MM = Missing Value Source: Averaged Metar Reports

Daily Weather History Graph

Daily Weather History Graph

Search for Another Location

Airport or City:

Trip Planner

Search our weather history database for the weather conditions in past years. The results will help you decide how hot, cold, wet, or windy it might be!

Date:

Astronomy

Jan. 12, 2013 Rise Set
Actual Time 7:58 AM EST 5:22 PM EST
Civil Twilight 7:27 AM EST 5:53 PM EST
Nautical Twilight 6:52 AM EST 6:27 PM EST
Astronomical Twilight 6:19 AM EST 7:01 PM EST
Moon 8:14 AM EST (1/12) 6:51 PM EST (1/12)
Length of Visible Light 10h 25m
Length of Day
9h 23m
New Moon, 1% of the Moon is Illuminated
Jan 12
New Moon
Jan 18
First Quarter
Jan 26
Full
Feb 3
Last Quarter
Feb 10
New

Hourly Weather History & Observations

Time (EST) Temp. Windchill Dew Point Humidity Pressure Visibility Wind Dir Wind Speed Gust Speed Precip Events Conditions
12:00 AM 45.3 °F 40.6 °F 43.7 °F 94% 29.88 in - South 9.2 mph - N/A   Unknown
1:00 AM 46 °F - 44 °F 89% 29.86 in - South 9.2 mph - -  
1:00 AM 45.5 °F 40.8 °F 43.9 °F 94% 29.86 in - South 9.2 mph - N/A   Unknown
2:00 AM 45.3 °F 40.1 °F 43.5 °F 93% 29.87 in - SSW 10.4 mph - N/A   Unknown
3:00 AM 46.6 °F - 43.5 °F 89% 29.87 in - SSW 10.4 mph - N/A   Unknown
4:00 AM 46.6 °F - 43.3 °F 88% 29.88 in - SSW 11.5 mph - N/A   Unknown
5:00 AM 46.8 °F - 43.5 °F 88% 29.87 in - SSW 11.5 mph - N/A   Unknown
6:00 AM 46.4 °F 41.1 °F 43.5 °F 90% 29.88 in - SSW 11.5 mph 17.3 mph N/A   Unknown
7:00 AM 47 °F - 44 °F 86% 29.88 in - SSW 11.5 mph - -  
7:00 AM 46.9 °F - 44.1 °F 90% 29.88 in - SSW 11.5 mph - N/A   Unknown
8:00 AM 46.6 °F - 44.1 °F 91% 29.89 in - SSW 10.4 mph - N/A   Unknown
9:00 AM 46.8 °F - 44.4 °F 92% 29.93 in - SW 11.5 mph - N/A   Unknown
10:00 AM 48.2 °F - 45.9 °F 92% 29.94 in - SW 9.2 mph - N/A   Unknown
12:00 PM 52.3 °F - 49.1 °F 89% 29.92 in - SW 10.4 mph - N/A   Unknown
1:00 PM 52 °F - 49 °F 86% 29.91 in - SSW 8.1 mph - -  
1:00 PM 52.0 °F - 49.1 °F 90% 29.91 in - SSW 8.1 mph - N/A   Unknown
2:00 PM 53.1 °F - 50.2 °F 90% 29.92 in - SW 8.1 mph - N/A   Unknown
3:00 PM 53.4 °F - 50.0 °F 88% 29.95 in - SW 10.4 mph - N/A   Unknown
4:00 PM 53.8 °F - 49.8 °F 86% 29.95 in - SW 10.4 mph - N/A   Unknown
5:00 PM 52.5 °F - 49.6 °F 90% 29.94 in - SSW 6.9 mph - N/A   Unknown
6:00 PM 52.3 °F - 49.6 °F 91% 29.95 in - SW 6.9 mph - N/A   Unknown
7:00 PM 49 °F - 47 °F 92% 29.92 in - South 3.5 mph - -  
7:00 PM 48.7 °F - 47.5 °F 95% 29.92 in - South 3.5 mph - N/A   Unknown
8:00 PM 47.1 °F - 46.4 °F 97% 29.93 in - South 5.8 mph - N/A   Unknown
9:00 PM 47.8 °F - 47.3 °F 98% 29.90 in - SSE 3.5 mph - N/A   Unknown
10:00 PM 46.0 °F - 45.5 °F 98% 29.90 in - NNE 1.2 mph - N/A   Unknown
11:00 PM 47.1 °F - 46.8 °F 99% 29.86 in - NNE 3.5 mph - N/A   Unknown